Time_in_sec,Latitude,Longitude,Altitude,Nbsat_max_qualitysignal,Nbsat_locked,valid_data
1326901196.27351475,47.37635422,8.55035973,503.58718872,0,7,1
1326901278.72147942,47.37641144,8.55056095,490.07565308,4,8,1
1326901278.77255583,47.37641144,8.55056095,490.07562256,4,8,1
1326901278.82550383,47.37641144,8.55056095,490.07553101,4,8,1
1326901278.86582160,47.37641144,8.55056095,490.07543945,4,8,1
1326901278.92550325,47.37641144,8.55056095,490.07531738,4,8,1
1326901278.97350574,47.37641525,8.55056190,490.16937256,4,8,1
1326901279.02483082,47.37641525,8.55056190,490.16952515,4,8,1
1326901279.07263231,47.37641525,8.55056190,490.16967773,4,8,1
1326901279.12548852,47.37641525,8.55056190,490.16976929,4,8,1
1326901279.17262387,47.37641525,8.55056190,490.26699829,4,8,1
1326901279.22276831,47.37641525,8.55056190,490.26739502,4,8,1
1326901279.27350450,47.37641525,8.55056190,490.26776123,4,8,1
1326901279.32456207,47.37641525,8.55056190,490.26809692,4,8,1
1326901279.36463284,47.37641525,8.55056286,490.26840210,4,8,1
1326901279.42517447,47.37641525,8.55056286,490.26861572,4,8,1
1326901279.47263956,47.37641525,8.55056286,490.36578369,4,8,1
1326901279.52694440,47.37641525,8.55056286,490.36636353,4,8,1
1326901279.57364535,47.37641525,8.55056286,490.36691284,4,8,1
1326901279.61268520,47.37641525,8.55056286,490.36743164,3,8,1
1326901279.67252231,47.37641525,8.55056381,490.45339966,3,8,1
1326901279.72453976,47.37641525,8.55056286,490.45932007,3,8,1
1326901279.77350450,47.37641525,8.55056286,490.46011353,3,8,1
1326901279.82499599,47.37641525,8.55056286,490.46084595,3,8,1
1326901279.86556482,47.37641525,8.55056286,490.46154785,3,8,1
1326901279.92547941,47.37641525,8.55056286,490.46209717,3,8,1
1326901279.97256637,47.37641525,8.55056286,490.53283691,3,8,1
1326901280.02462482,47.37641525,8.55056286,490.53369141,3,8,1
1326901280.07349420,47.37641525,8.55056381,490.53448486,3,8,1
1326901280.12452364,47.37641525,8.55056381,490.53524780,3,8,1
1326901280.17350245,47.37641525,8.55056381,490.56231689,3,8,1
1326901280.22450566,47.37641525,8.55056381,490.56314087,3,8,1
1326901280.27352786,47.37641525,8.55056381,490.56393433,3,8,1
1326901280.32602525,47.37641525,8.55056381,490.56466675,3,8,1
1326901280.36770153,47.37641525,8.55056381,490.56536865,3,8,1
1326901280.42450118,47.37641525,8.55056381,490.56588745,3,8,1
1326901280.47349620,47.37641525,8.55056381,490.53872681,3,8,1
1326901280.52483869,47.37641525,8.55056381,490.53912354,3,8,1
1326901280.57351232,47.37641525,8.55056381,490.53948975,3,8,1
1326901280.62550282,47.37641525,8.55056381,490.53982544,3,8,1
1326901280.67255116,47.37641525,8.55056381,490.46835327,3,8,1
1326901280.72550702,47.37641525,8.55056381,490.46829224,3,8,1
1326901280.77358580,47.37641525,8.55056381,490.46820068,3,8,1
1326901280.82454824,47.37641525,8.55056381,490.46807861,3,8,1
1326901280.86613607,47.37641525,8.55056381,490.46792603,3,8,1
1326901280.92452312,47.37641525,8.55056381,490.46774292,3,8,1
1326901280.97256374,47.37641525,8.55056381,490.35305786,3,8,1
1326901281.01349783,47.37641525,8.55056381,490.35232544,3,8,1
1326901281.07352757,47.37641525,8.55056381,490.35168457,3,8,1
1326901281.12561798,47.37641525,8.55056381,490.35070801,3,8,1
1326901281.17358041,47.37641525,8.55056477,490.21112061,3,8,1
1326901281.22172117,47.37641525,8.55056477,490.20965576,3,8,1
1326901281.27260280,47.37641525,8.55056477,490.20816040,3,8,1
1326901281.32162690,47.37641525,8.55056477,490.20660400,3,8,1
1326901281.37350368,47.37641525,8.55056477,490.20498657,3,8,1
1326901281.41260934,47.37641525,8.55056477,490.20333862,3,8,1
1326901281.47263837,47.37641525,8.55056381,490.05172729,3,8,1
1326901281.52177930,47.37641525,8.55056381,490.04895020,3,8,1
1326901281.57255363,47.37641525,8.55056381,490.04663086,3,8,1
1326901281.61257052,47.37641525,8.55056381,490.04428101,3,8,1
1326901281.67445016,47.37641907,8.55056477,489.87414551,3,8,1
1326901281.72456694,47.37641907,8.55056477,489.86853027,3,8,1
1326901281.77351117,47.37641907,8.55056477,489.86541748,3,8,1
1326901281.82548547,47.37641907,8.55056477,489.86227417,3,8,1
1326901281.86461997,47.37641907,8.55056477,489.85906982,3,8,1
1326901281.92552471,47.37641907,8.55056477,489.85650635,3,8,1
1326901281.97254539,47.37641907,8.55056477,489.65930176,3,8,1
1326901282.02457285,47.37641907,8.55056477,489.65524292,3,8,1
1326901282.07352996,47.37641907,8.55056477,489.65112305,3,8,1
1326901282.12469387,47.37641907,8.55056477,489.64697266,3,8,1
1326901282.17350221,47.37641907,8.55056572,489.43984985,3,8,1
1326901282.22451329,47.37641907,8.55056572,489.43484497,3,8,1
1326901282.27262592,47.37641907,8.55056572,489.42980957,3,8,1
1326901282.32553124,47.37641907,8.55056572,489.42474365,3,8,1
1326901282.36462426,47.37641907,8.55056572,489.41961670,3,8,1
1326901282.42451692,47.37641907,8.55056572,489.41546631,3,8,1
1326901282.47350979,47.37641907,8.55056667,489.20022583,3,8,1
1326901282.52462244,47.37641907,8.55056667,489.19415283,3,8,1
1326901282.57252979,47.37641907,8.55056667,489.18804932,3,8,1
1326901282.62450385,47.37641907,8.55056667,489.18191528,3,8,1
1326901282.67254972,47.37641907,8.55056667,488.96105957,3,8,1
1326901282.72832584,47.37641907,8.55056667,488.95401001,3,8,1
1326901282.77262974,47.37641907,8.55056667,488.94692993,3,8,1
1326901282.82462621,47.37641907,8.55056667,488.93981934,3,8,1
1326901282.87350225,47.37641907,8.55056763,488.93267822,3,8,1
1326901282.92472577,47.37641907,8.55056763,488.92550659,3,8,1
1326901282.97303629,47.37641907,8.55056763,488.70120239,3,8,1
1326901283.02504635,47.37641907,8.55056763,488.69311523,3,8,1
1326901283.07256103,47.37641907,8.55056858,488.68502808,3,8,1
1326901283.12614322,47.37641907,8.55056858,488.67687988,3,8,1
1326901283.17289519,47.37642288,8.55056858,488.45114136,3,8,1
1326901283.22488379,47.37642288,8.55056858,488.43777466,3,8,1
1326901283.27350569,47.37642288,8.55056858,488.42868042,3,8,1
1326901283.32464290,47.37642288,8.55056858,488.41952515,3,8,1
1326901283.36462951,47.37642288,8.55056858,488.41033936,3,8,1
1326901283.42464185,47.37642288,8.55056858,488.40295410,3,8,1
1326901283.47263384,47.37642288,8.55056858,488.16390991,3,8,1
1326901283.52285409,47.37642288,8.55056858,488.15368652,3,8,1
1326901283.57263899,47.37642288,8.55056858,488.14346313,3,8,1
1326901283.61254668,47.37642288,8.55056858,488.13317871,3,8,1
1326901283.67274785,47.37642288,8.55056953,487.90188599,4,8,1
1326901283.72552490,47.37642288,8.55056858,487.88235474,4,8,1
1326901283.77350163,47.37642288,8.55056858,487.87109375,4,8,1
1326901283.82553530,47.37642288,8.55056858,487.85977173,4,8,1
1326901283.86563635,47.37642288,8.55056858,487.84841919,4,8,1
1326901283.92551017,47.37642288,8.55056953,487.83932495,4,8,1
1326901283.97364855,47.37642288,8.55056953,487.59317017,4,8,1
1326901284.02468944,47.37642288,8.55056953,487.58084106,4,8,1
1326901284.07353592,47.37642288,8.55056953,487.56845093,4,8,1
1326901284.12165713,47.37642288,8.55056953,487.55603027,4,8,1
1326901284.17350888,47.37642670,8.55056953,487.29803467,4,8,1
1326901284.22459054,47.37642670,8.55056953,487.28457642,4,8,1
1326901284.27264667,47.37642670,8.55056953,487.27108765,4,8,1
1326901284.32557201,47.37642670,8.55056953,487.25756836,4,8,1
1326901284.36675429,47.37642670,8.55056953,487.24398804,4,8,1
1326901284.42453766,47.37642670,8.55056953,487.23306274,4,8,1
1326901284.47653031,47.37642670,8.55056953,486.97665405,4,8,1
1326901284.52559471,47.37642670,8.55056953,486.96203613,4,8,1
1326901284.57362938,47.37642670,8.55056953,486.94735718,4,8,1
1326901284.62150836,47.37642670,8.55056953,486.93264771,4,8,1
1326901284.67259097,47.37642670,8.55057049,486.67318726,4,8,1
1326901284.72403455,47.37642670,8.55057049,486.65747070,4,8,1
1326901284.77359080,47.37642670,8.55057049,486.64172363,4,8,1
1326901284.82148170,47.37642670,8.55057049,486.62594604,4,8,1
1326901284.86771321,47.37643051,8.55057049,486.61010742,4,8,1
1326901284.92550373,47.37643051,8.55057049,486.59741211,4,8,1
1326901284.97350621,47.37643051,8.55057049,486.33279419,4,8,1
1326901285.02450871,47.37643051,8.55057049,486.31591797,4,8,1
1326901285.07254338,47.37643051,8.55057049,486.29898071,4,8,1
1326901285.12664914,47.37643051,8.55057144,486.28201294,4,8,1
1326901285.17322183,47.37643051,8.55057049,486.02716064,4,8,1
1326901285.22392297,47.37643051,8.55057049,486.00921631,4,8,1
1326901285.27351665,47.37643051,8.55057144,485.99121094,4,8,1
1326901285.32364225,47.37643051,8.55057144,485.97317505,4,8,1
1326901285.36450434,47.37643051,8.55057144,485.95507812,4,8,1
1326901285.42517209,47.37643051,8.55057144,485.94058228,4,8,1
1326901285.47249722,47.37643433,8.55057144,485.68017578,4,8,1
1326901285.52552319,47.37643433,8.55057144,485.66104126,4,8,1
1326901285.57250476,47.37643433,8.55057144,485.64187622,4,8,1
1326901285.61425233,47.37643433,8.55057144,485.62268066,4,8,1
1326901285.67352390,47.37643433,8.55057240,485.38446045,4,8,1
1326901285.72455573,47.37643433,8.55057335,485.35369873,4,8,1
1326901285.77350426,47.37643433,8.55057335,485.33343506,4,8,1
1326901285.82564282,47.37643433,8.55057335,485.31314087,4,8,1
1326901285.86565828,47.37643433,8.55057335,485.29278564,4,8,1
1326901285.92951226,47.37643433,8.55057335,485.27648926,4,8,1
1326901285.97263551,47.37643814,8.55057430,485.04101562,4,8,1
1326901286.02464724,47.37643814,8.55057430,485.01977539,4,8,1
1326901286.07353950,47.37643814,8.55057430,484.99844360,4,8,1
1326901286.12452269,47.37643814,8.55057430,484.97711182,4,8,1
1326901286.17350698,47.37643814,8.55057526,484.76446533,4,8,1
1326901286.22549605,47.37643814,8.55057526,484.74230957,4,8,1
1326901286.27265644,47.37643814,8.55057526,484.72012329,4,8,1
1326901286.32743216,47.37643814,8.55057526,484.69784546,4,8,1
1326901286.37264585,47.37643814,8.55057526,484.67553711,4,8,1
1326901286.42453933,47.37643814,8.55057526,484.65319824,4,8,1
1326901286.47354555,47.37643814,8.55057621,484.45819092,4,8,1
1326901286.52465010,47.37643814,8.55057621,484.43508911,4,8,1
1326901286.57351112,47.37643814,8.55057621,484.41195679,4,8,1
1326901286.62454176,47.37644196,8.55057621,484.38879395,4,8,1
1326901286.67262411,47.37644196,8.55057716,484.20294189,4,8,1
1326901286.72548795,47.37644196,8.55057716,484.17907715,4,8,1
1326901286.77261281,47.37644196,8.55057716,484.15518188,4,8,1
1326901286.82164097,47.37644196,8.55057716,484.13122559,4,8,1
1326901286.86580229,47.37644196,8.55057716,484.10720825,4,8,1
1326901286.92564917,47.37644196,8.55057716,484.08798218,4,8,1
1326901286.97350335,47.37644196,8.55057716,483.90417480,4,8,1
1326901287.02548528,47.37644196,8.55057716,483.87945557,4,8,1
1326901287.07266593,47.37644196,8.55057716,483.85467529,4,8,1
1326901287.12550783,47.37644196,8.55057716,483.82986450,4,8,1
1326901287.17267990,47.37644196,8.55057716,483.66708374,4,8,1
1326901287.22164297,47.37644577,8.55057716,483.64172363,4,8,1
1326901287.27252889,47.37644577,8.55057812,483.61630249,4,8,1
1326901287.32151747,47.37644577,8.55057812,483.59088135,4,8,1
1326901287.37352824,47.37644577,8.55057812,483.56539917,4,8,1
1326901287.42550850,47.37644577,8.55057812,483.53988647,4,8,1
1326901287.47253823,47.37644577,8.55057907,483.38369751,4,8,1
1326901287.52153420,47.37644577,8.55057907,483.35757446,4,8,1
1326901287.57361555,47.37644577,8.55057907,483.33145142,4,8,1
1326901287.61263418,47.37644577,8.55057907,483.30529785,4,8,1
1326901287.67354465,47.37644577,8.55058098,483.16516113,4,8,1
1326901287.72462678,47.37644577,8.55058002,483.13491821,4,8,1
1326901287.77350903,47.37644577,8.55058002,483.10821533,4,8,1
1326901287.82452822,47.37644577,8.55058002,483.08148193,4,8,1
1326901287.86462688,47.37644577,8.55058002,483.05471802,4,8,1
1326901287.92578316,47.37644577,8.55058002,483.03326416,4,8,1
1326901287.97305250,47.37644958,8.55058098,482.88775635,4,8,1
1326901288.02533150,47.37644958,8.55058098,482.86044312,4,8,1
1326901288.07252049,47.37644958,8.55058098,482.83306885,4,8,1
1326901288.12451982,47.37644958,8.55058098,482.80569458,4,8,1
1326901288.17379045,47.37644958,8.55058098,482.67602539,4,8,1
1326901288.22521448,47.37644958,8.55058098,482.64819336,4,8,1
1326901288.27261305,47.37644958,8.55058098,482.62026978,4,8,1
1326901288.32559896,47.37644958,8.55058098,482.59231567,4,8,1
1326901288.37256455,47.37644958,8.55058098,482.56433105,4,8,1
1326901288.42555046,47.37644958,8.55058098,482.53628540,4,8,1
1326901288.47349858,47.37644958,8.55058193,482.41912842,4,8,1
1326901288.52461290,47.37644958,8.55058193,482.39068604,4,8,1
1326901288.57350564,47.37645340,8.55058193,482.36221313,4,8,1
1326901288.62450743,47.37645340,8.55058289,482.33367920,4,8,1
1326901288.67320275,47.37645340,8.55058193,482.23251343,4,8,1
1326901288.72549057,47.37645340,8.55058193,482.20364380,4,8,1
1326901288.77255940,47.37645340,8.55058289,482.17477417,4,8,1
1326901288.82454920,47.37645340,8.55058289,482.14584351,4,8,1
1326901288.86551929,47.37645340,8.55058289,482.11691284,4,8,1
1326901288.92455339,47.37645340,8.55058289,482.09371948,4,8,1
1326901288.97351146,47.37645340,8.55058193,482.00540161,4,8,1
1326901289.02466893,47.37645340,8.55058193,481.97616577,4,8,1
1326901289.07250619,47.37645340,8.55058193,481.94689941,4,8,1
1326901289.12912560,47.37645340,8.55058193,481.91760254,4,8,1
1326901289.17365742,47.37645340,8.55058193,481.84365845,4,8,1
1326901289.22485638,47.37645721,8.55058193,481.81411743,4,8,1
1326901289.27352858,47.37645721,8.55058193,481.78454590,4,8,1
1326901289.32462001,47.37645721,8.55058193,481.75494385,4,8,1
1326901289.37350035,47.37645721,8.55058193,481.72528076,4,8,1
1326901289.42470145,47.37645721,8.55058193,481.69558716,4,8,1
1326901289.47253084,47.37645721,8.55058193,481.64324951,4,8,1
1326901289.52551055,47.37645721,8.55058193,481.61340332,4,8,1
1326901289.57272315,47.37645721,8.55058193,481.58352661,4,8,1
1326901289.61365485,47.37645721,8.55058193,481.55358887,4,8,1
1326901289.67349434,47.37645721,8.55058193,481.51315308,5,8,1
1326901289.72166300,47.37645721,8.55058193,481.48370361,5,8,1
1326901289.77352524,47.37645721,8.55058193,481.45364380,5,8,1
1326901289.82552719,47.37645721,8.55058193,481.42355347,5,8,1
1326901289.86174726,47.37645721,8.55058193,481.39340210,5,8,1
1326901289.92575693,47.37645721,8.55058193,481.36926270,5,8,1
1326901289.97267413,47.37645721,8.55058289,481.34350586,5,8,1
1326901290.02465200,47.37645721,8.55058289,481.31329346,5,8,1
1326901290.06550336,47.37645721,8.55058289,481.28305054,5,8,1
1326901290.12153196,47.37645721,8.55058289,481.25885010,5,8,1
1326901290.17351508,47.37645721,8.55058193,481.24954224,5,8,1
1326901290.22152996,47.37645721,8.55058193,481.21936035,5,8,1
1326901290.27247667,47.37645721,8.55058193,481.18911743,5,8,1
1326901290.32148218,47.37645721,8.55058193,481.15887451,5,8,1
1326901290.36550689,47.37645721,8.55058193,481.12857056,5,8,1
1326901290.42452836,47.37645721,8.55058193,481.10430908,5,8,1
1326901290.47352529,47.37645721,8.55058289,481.11364746,5,8,1
1326901290.52162743,47.37645721,8.55058289,481.08343506,5,8,1
1326901290.57352638,47.37645721,8.55058289,481.05319214,5,8,1
1326901290.62448931,47.37645721,8.55058289,481.02291870,5,8,1
1326901290.67336941,47.37645721,8.55058193,481.04541016,5,8,1
1326901290.72950935,47.37645721,8.55058289,481.02737427,5,8,1
1326901290.77607059,47.37645721,8.55058289,480.99728394,5,8,1
1326901290.82548690,47.37645721,8.55058289,480.96713257,5,8,1
1326901290.86550856,47.37645721,8.55058289,480.93695068,5,8,1
1326901290.92549825,47.37645721,8.55058289,480.91278076,5,8,1
1326901290.97350192,47.37645721,8.55058098,480.95544434,5,8,1
1326901291.02450013,47.37645721,8.55058098,480.92547607,5,8,1
1326901291.07350421,47.37645721,8.55058098,480.89547729,5,8,1
1326901291.12756419,47.37645721,8.55058098,480.86544800,5,8,1
1326901291.17329502,47.37645721,8.55058002,480.92483521,5,8,1
1326901291.22456574,47.37645721,8.55058002,480.89511108,5,8,1
1326901291.27351880,47.37645721,8.55058002,480.86532593,5,8,1
1326901291.32656646,47.37645721,8.55058002,480.83554077,5,8,1
1326901291.37351322,47.37645721,8.55058002,480.80569458,5,8,1
1326901291.42450285,47.37645721,8.55058002,480.77581787,5,8,1
1326901291.47361612,47.37645721,8.55057907,480.83642578,5,8,1
1326901291.52550721,47.37645721,8.55057907,480.80679321,5,8,1
1326901291.57364726,47.37645721,8.55057907,480.77713013,5,8,1
1326901291.61364985,47.37645721,8.55057907,480.74740601,5,8,1
1326901291.67351270,47.37645721,8.55057812,480.81539917,5,9,1
1326901291.72482800,47.37645721,8.55057812,480.79412842,5,9,1
1326901291.77350497,47.37645721,8.55057812,480.76477051,5,9,1
1326901291.82495427,47.37645721,8.55057812,480.73535156,5,9,1
1326901291.86194539,47.37645721,8.55057812,480.70590210,5,9,1
1326901291.92552042,47.37645721,8.55057812,480.68231201,5,9,1
1326901291.96498108,47.37645721,8.55057716,480.75897217,5,9,1
1326901292.02509427,47.37645721,8.55057716,480.73571777,5,9,1
1326901292.07349324,47.37645721,8.55057716,480.70074463,5,9,1
1326901292.12508941,47.37645721,8.55057716,480.67156982,5,9,1
1326901292.17350149,47.37645721,8.55057716,480.76031494,5,9,1
1326901292.22452617,47.37645721,8.55057716,480.73156738,5,9,1
1326901292.27253962,47.37645721,8.55057716,480.70275879,5,9,1
1326901292.32845712,47.37645721,8.55057716,480.67391968,5,9,1
1326901292.37306404,47.37645721,8.55057716,480.64501953,5,9,1
1326901292.42564678,47.37645721,8.55057716,480.61608887,5,9,1
1326901292.47350359,47.37645340,8.55057621,480.71386719,5,9,1
1326901292.52464032,47.37645340,8.55057621,480.68536377,5,9,1
1326901292.57352257,47.37645340,8.55057621,480.65686035,5,9,1
1326901292.62455034,47.37645340,8.55057621,480.62826538,5,9,1
1326901292.67280793,47.37645340,8.55057526,480.73822021,5,9,1
1326901292.72548008,47.37645340,8.55057526,480.71011353,5,9,1
1326901292.77269912,47.37645340,8.55057526,480.68200684,5,9,1
1326901292.82553291,47.37645340,8.55057526,480.65383911,5,9,1
1326901292.86550236,47.37645340,8.55057526,480.62564087,5,9,1
1326901292.92452455,47.37645340,8.55057526,480.60305786,5,9,1
1326901292.97350025,47.37645340,8.55057526,480.71054077,5,9,1
1326901293.02451944,47.37645340,8.55057526,480.68280029,5,9,1
1326901293.07263160,47.37645340,8.55057526,480.65502930,5,9,1
1326901293.12297106,47.37645340,8.55057526,480.62722778,5,9,1
1326901293.17263150,47.37645340,8.55057430,480.75277710,5,9,1
1326901293.22462940,47.37645340,8.55057430,480.72552490,5,9,1
1326901293.27352881,47.37645340,8.55057430,480.69824219,5,9,1
1326901293.32163811,47.37645340,8.55057430,480.67092896,5,9,1
1326901293.37350154,47.37645340,8.55057430,480.64358521,5,9,1
1326901293.42143631,47.37645340,8.55057430,480.61621094,5,9,1
1326901293.47257733,47.37645340,8.55057335,480.75027466,5,9,1
1326901293.52549124,47.37645340,8.55057335,480.72354126,5,9,1
1326901293.57253981,47.37645340,8.55057335,480.69677734,5,9,1
1326901293.61357880,47.37645340,8.55057335,480.66998291,5,9,1
1326901293.67751789,47.37645340,8.55057240,480.79940796,4,9,1
1326901293.72453284,47.37644958,8.55057240,480.78839111,4,9,1
1326901293.77350211,47.37644958,8.55057240,480.76220703,4,9,1
1326901293.82549977,47.37644958,8.55057240,480.73596191,4,9,1
1326901293.86526775,47.37644958,8.55057240,480.70965576,4,9,1
1326901293.92689276,47.37644958,8.55057240,480.68859863,4,9,1
1326901293.97261691,47.37644958,8.55057240,480.83471680,4,9,1
1326901294.02453709,47.37644958,8.55057240,480.80905151,4,9,1
1326901294.07256866,47.37644958,8.55057240,480.78335571,4,9,1
1326901294.12461972,47.37644958,8.55057240,480.75762939,4,9,1
1326901294.17350173,47.37644958,8.55057240,480.91921997,4,9,1
1326901294.22550774,47.37644958,8.55057240,480.89419556,4,9,1
1326901294.27262759,47.37644958,8.55057240,480.86914062,4,9,1
1326901294.32514644,47.37644958,8.55057240,480.84402466,4,9,1
1326901294.36554337,47.37644958,8.55057240,480.81887817,4,9,1
1326901294.42462730,47.37644958,8.55057240,480.79873657,4,9,1
1326901294.47354054,47.37644958,8.55057240,480.95275879,4,9,1
1326901294.52555251,47.37644958,8.55057240,480.92822266,4,9,1
1326901294.57350349,47.37644958,8.55057240,480.90368652,4,9,1
1326901294.62553477,47.37644958,8.55057240,480.87908936,4,9,1
1326901294.67325139,47.37644577,8.55057240,481.03018188,4,9,1
1326901294.72590613,47.37644577,8.55057240,481.00622559,4,9,1
1326901294.77300978,47.37644577,8.55057240,480.98220825,4,9,1
1326901294.82462263,47.37644577,8.55057240,480.95812988,4,9,1
1326901294.87252498,47.37644577,8.55057240,480.93405151,4,9,1
1326901294.92456150,47.37644577,8.55057240,481.07052612,4,9,1
1326901294.97350860,47.37644577,8.55057240,481.06665039,4,9,1
1326901295.02489877,47.37644577,8.55057240,481.04321289,4,9,1
1326901295.07262588,47.37644577,8.55057240,481.01974487,4,9,1
1326901295.12549949,47.37644577,8.55057240,480.99624634,4,9,1
1326901295.17298985,47.37644577,8.55057240,481.14810181,4,9,1
1326901295.22453952,47.37644577,8.55057240,481.12524414,4,9,1
1326901295.27350473,47.37644577,8.55057240,481.10238647,4,9,1
1326901295.32452250,47.37644577,8.55057240,481.07949829,4,9,1
1326901295.36584520,47.37644577,8.55057240,481.05657959,4,9,1
1326901295.42549682,47.37644577,8.55057240,481.03820801,4,9,1
1326901295.47254562,47.37644196,8.55057240,481.18041992,4,9,1
1326901295.52563119,47.37644196,8.55057240,481.15805054,4,9,1
1326901295.57271552,47.37644196,8.55057240,481.13565063,4,9,1
1326901295.61365676,47.37644196,8.55057240,481.11318970,4,9,1
1326901295.67349291,47.37644196,8.55057240,481.24877930,4,8,1
1326901295.72453737,47.37644196,8.55057240,481.23892212,4,8,1
1326901295.77349019,47.37644196,8.55057240,481.21704102,4,8,1
1326901295.82453489,47.37644196,8.55057240,481.19509888,4,8,1
1326901295.86556506,47.37644196,8.55057240,481.17312622,4,8,1
1326901295.92722082,47.37644196,8.55057240,481.15551758,4,8,1
1326901295.97487164,47.37644196,8.55057049,481.30917358,4,8,1
1326901296.02466130,47.37644196,8.55057049,481.28787231,4,8,1
1326901296.07351637,47.37644196,8.55057049,481.26651001,4,8,1
1326901296.12173510,47.37644196,8.55057049,481.24514771,4,8,1
1326901296.17350984,47.37644196,8.55057049,481.39883423,4,8,1
1326901296.22563696,47.37644196,8.55057049,481.37811279,4,8,1
1326901296.27262020,47.37644196,8.55057049,481.35736084,4,8,1
1326901296.32147765,47.37643814,8.55057049,481.33654785,4,8,1
1326901296.37348413,47.37643814,8.55057049,481.31570435,4,8,1
1326901296.42147923,47.37643814,8.55057049,481.29483032,4,8,1
1326901296.47350931,47.37643814,8.55057144,481.44775391,4,8,1
1326901296.52475309,47.37643814,8.55057144,481.42749023,4,8,1
1326901296.57408571,47.37643814,8.55057144,481.40719604,4,8,1
1326901296.62552285,47.37643814,8.55057144,481.38690186,4,8,1
